WXM80 ListenWXM80 Stop

You find our weather info also at:

UK Metoffice

WeatherCloud

Weather Underground

Northeastern Weather Network

AWEKAS

Citizen Weather Observer Program (CWOP)

HAMweather, WeatherForYou, PWS Weather


Weather Underground History page Text

Daily Summary for September 19, 2016 Units:  English    Metric   Both
« Previous Day
Next Day »
Daily Weekly Monthly Yearly Custom
  High: Low: Average:
Temperature: 74.1 °F 69.3 °F 71.8 °F
Dew Point: 72.2 °F 68.2 °F 70.5 °F
Humidity: 97 % 91 % 96 %
Wind Speed: 7.0 mph 0.0 mph 0.6 mph
Wind Gust: 16.0 mph - -
Wind:- - South
Pressure: 30.05 in 29.96 in -
Precipitation: 0.70 in    
Historical Graphs
 
 
Tabular Data for September 19, 2016
Time Temperature Dew Point Pressure Wind Wind Speed Wind Gust Humidity Rainfall Rate (Hourly)
00:04 74.1 °F 71.3 °F 30.00 in Calm   1.2 mph 91 % 0.00 in
00:09 74.0 °F 71.2 °F 30.00 in SW 0.1 mph 1.2 mph 91 % 0.00 in
00:15 74.0 °F 71.5 °F 30.01 in SSW 0.3 mph 1.2 mph 92 % 0.00 in
00:20 74.0 °F 71.5 °F 30.00 in Calm   1.2 mph 92 % 0.00 in
00:25 73.9 °F 71.4 °F 30.01 in SSW 0.1 mph 1.2 mph 92 % 0.00 in
00:30 73.9 °F 71.4 °F 30.00 in Calm     92 % 0.00 in
00:35 73.9 °F 71.4 °F 30.00 in SE 0.7 mph 4.6 mph 92 % 0.00 in
00:40 73.8 °F 71.3 °F 30.00 in SE 0.1 mph 1.2 mph 92 % 0.00 in
00:50 73.8 °F 71.6 °F 29.99 in Calm   1.2 mph 93 % 0.00 in
01:01 73.7 °F 71.2 °F 29.99 in SSE 0.3 mph 1.2 mph 92 % 0.00 in
01:06 73.7 °F 71.5 °F 29.99 in Calm   4.0 mph 93 % 0.00 in
01:11 73.7 °F 71.5 °F 29.99 in Calm   2.0 mph 93 % 0.00 in
01:16 73.7 °F 71.5 °F 29.99 in SE 0.2 mph 2.3 mph 93 % 0.00 in
01:21 73.7 °F 71.5 °F 29.99 in Calm   3.0 mph 93 % 0.00 in
01:26 73.7 °F 71.5 °F 29.99 in Calm   2.0 mph 93 % 0.00 in
01:31 73.6 °F 71.4 °F 29.99 in South 0.3 mph 1.2 mph 93 % 0.00 in
01:36 73.6 °F 71.4 °F 29.99 in Calm   3.0 mph 93 % 0.00 in
01:41 73.6 °F 71.4 °F 29.99 in Calm   2.0 mph 93 % 0.00 in
01:51 73.5 °F 71.4 °F 29.99 in SW 1.0 mph 3.0 mph 93 % 0.00 in
01:56 73.5 °F 71.4 °F 29.99 in Calm   4.0 mph 93 % 0.00 in
02:01 73.5 °F 71.4 °F 29.99 in SE 0.5 mph 2.3 mph 93 % 0.00 in
02:06 73.5 °F 71.4 °F 30.00 in SSE 1.0 mph 3.0 mph 93 % 0.00 in
02:11 73.4 °F 71.3 °F 30.00 in SSW 1.0 mph 5.0 mph 93 % 0.00 in
02:16 73.4 °F 71.3 °F 30.00 in WSW 0.2 mph 3.5 mph 93 % 0.00 in
02:21 73.4 °F 71.2 °F 29.99 in Calm   1.0 mph 93 % 0.00 in
02:26 73.3 °F 71.2 °F 29.99 in WSW 1.0 mph 4.0 mph 93 % 0.00 in
02:31 73.3 °F 71.2 °F 29.99 in SW 0.2 mph 1.2 mph 93 % 0.00 in
02:36 73.3 °F 71.2 °F 29.99 in Calm   1.0 mph 93 % 0.00 in
02:41 73.2 °F 71.1 °F 29.99 in SSW 1.0 mph 5.0 mph 93 % 0.00 in
02:46 73.2 °F 71.1 °F 29.99 in SW 0.1 mph 1.2 mph 93 % 0.00 in
02:51 73.2 °F 71.1 °F 29.99 in Calm   4.0 mph 93 % 0.00 in
02:56 73.2 °F 71.1 °F 29.99 in Calm   3.0 mph 93 % 0.00 in
03:01 73.1 °F 71.3 °F 29.99 in WSW 0.6 mph 2.3 mph 94 % 0.00 in
03:06 73.1 °F 71.3 °F 29.99 in Calm   2.0 mph 94 % 0.00 in
03:11 73.1 °F 71.3 °F 29.99 in Calm   2.0 mph 94 % 0.00 in
03:16 73.1 °F 71.3 °F 29.98 in SW 0.4 mph 2.0 mph 94 % 0.00 in
03:21 73.1 °F 71.3 °F 29.98 in SSW 1.0 mph 3.0 mph 94 % 0.00 in
03:26 73.1 °F 71.3 °F 29.98 in Calm   2.0 mph 94 % 0.00 in
03:31 73.0 °F 71.2 °F 29.98 in Calm   1.2 mph 94 % 0.00 in
03:36 73.0 °F 71.2 °F 29.98 in Calm   2.0 mph 94 % 0.00 in
03:41 73.1 °F 71.2 °F 29.98 in Calm   2.0 mph 94 % 0.00 in
03:46 73.1 °F 71.2 °F 29.98 in Calm   1.0 mph 94 % 0.00 in
03:51 73.1 °F 71.2 °F 29.98 in Calm   1.0 mph 94 % 0.00 in
03:56 73.1 °F 71.2 °F 29.98 in Calm   3.0 mph 94 % 0.00 in
04:01 73.0 °F 71.2 °F 29.98 in Calm   1.0 mph 94 % 0.00 in
04:06 73.0 °F 71.2 °F 29.98 in Calm   2.0 mph 94 % 0.00 in
04:11 73.0 °F 71.5 °F 29.98 in Calm   2.0 mph 95 % 0.00 in
04:16 73.0 °F 71.5 °F 29.98 in Calm     95 % 0.00 in
04:21 73.0 °F 71.5 °F 29.98 in Calm   1.0 mph 95 % 0.00 in
04:26 72.9 °F 71.4 °F 29.98 in Calm   2.0 mph 95 % 0.00 in
04:31 72.9 °F 71.4 °F 29.98 in Calm     95 % 0.00 in
04:36 72.9 °F 71.4 °F 29.98 in Calm   1.0 mph 95 % 0.00 in
04:41 72.9 °F 71.4 °F 29.98 in Calm     95 % 0.00 in
04:46 73.0 °F 71.5 °F 29.98 in Calm   1.2 mph 95 % 0.00 in
04:51 73.0 °F 71.5 °F 29.98 in Calm   1.0 mph 95 % 0.00 in
04:56 73.0 °F 71.5 °F 29.98 in Calm     95 % 0.00 in
05:01 73.0 °F 71.5 °F 29.98 in Calm     95 % 0.00 in
05:06 73.0 °F 71.5 °F 29.98 in Calm   1.0 mph 95 % 0.00 in
05:11 73.0 °F 71.5 °F 29.98 in Calm     95 % 0.00 in
05:16 73.1 °F 71.6 °F 29.98 in Calm   2.0 mph 95 % 0.00 in
05:21 73.1 °F 71.6 °F 29.98 in Calm   1.0 mph 95 % 0.00 in
05:26 73.1 °F 71.6 °F 29.97 in Calm   1.0 mph 95 % 0.00 in
05:31 73.1 °F 71.6 °F 29.97 in Calm     95 % 0.00 in
05:36 73.0 °F 71.5 °F 29.97 in Calm     95 % 0.00 in
05:41 73.0 °F 71.5 °F 29.97 in Calm   2.0 mph 95 % 0.00 in
05:46 73.0 °F 71.5 °F 29.97 in Calm     95 % 0.00 in
05:51 73.0 °F 71.5 °F 29.97 in Calm   1.0 mph 95 % 0.00 in
05:56 73.1 °F 71.6 °F 29.97 in Calm   3.0 mph 95 % 0.00 in
06:01 73.1 °F 71.6 °F 29.97 in Calm     95 % 0.00 in
06:06 73.1 °F 71.6 °F 29.97 in Calm   3.0 mph 95 % 0.00 in
06:11 73.1 °F 71.6 °F 29.96 in Calm     95 % 0.00 in
06:16 73.1 °F 71.6 °F 29.96 in Calm   2.0 mph 95 % 0.00 in
06:21 73.1 °F 71.6 °F 29.96 in Calm   2.0 mph 95 % 0.00 in
06:26 73.1 °F 71.9 °F 29.97 in Calm   2.0 mph 96 % 0.00 in
06:31 73.2 °F 71.6 °F 29.97 in Calm   1.0 mph 95 % 0.00 in
06:36 73.2 °F 71.6 °F 29.97 in Calm   1.0 mph 95 % 0.00 in
06:41 73.2 °F 71.7 °F 29.96 in SSW 1.0 mph 3.0 mph 95 % 0.00 in
06:46 73.2 °F 71.7 °F 29.97 in SSE 1.0 mph 3.0 mph 95 % 0.00 in
06:51 73.3 °F 72.1 °F 29.97 in SE 1.0 mph 3.0 mph 96 % 0.00 in
06:56 73.3 °F 72.1 °F 29.97 in South 2.0 mph 5.0 mph 96 % 0.00 in
07:01 73.3 °F 72.1 °F 29.97 in Calm   1.2 mph 96 % 0.05 in
07:06 73.3 °F 72.1 °F 29.97 in Calm     96 % 0.05 in
07:11 73.3 °F 72.1 °F 29.97 in WSW 0.4 mph 3.5 mph 96 % 0.05 in
07:16 73.3 °F 72.1 °F 29.98 in Calm     96 % 0.05 in
07:21 73.3 °F 72.1 °F 29.98 in Calm     96 % 0.05 in
07:26 73.3 °F 72.1 °F 29.98 in Calm     96 % 0.05 in
07:31 73.3 °F 72.1 °F 29.98 in WNW 0.9 mph 3.5 mph 96 % 0.05 in
07:36 73.3 °F 72.1 °F 29.98 in Calm   2.3 mph 96 % 0.05 in
07:41 73.3 °F 72.1 °F 29.98 in WNW 0.3 mph 3.0 mph 96 % 0.05 in
07:46 73.4 °F 72.2 °F 29.98 in West 0.6 mph 2.3 mph 96 % 0.05 in
07:52 73.4 °F 72.2 °F 29.98 in NNE 3.3 mph 8.1 mph 96 % 0.01 in
07:57 73.3 °F 72.1 °F 29.98 in NNW 1.6 mph 3.5 mph 96 % 0.02 in
08:02 73.1 °F 71.9 °F 29.98 in Calm   1.2 mph 96 % 0.03 in
08:07 73.1 °F 71.9 °F 29.97 in Calm     96 % 0.03 in
08:12 73.1 °F 71.9 °F 29.97 in WSW 0.3 mph 1.2 mph 96 % 0.03 in
08:17 73.1 °F 71.9 °F 29.97 in Calm     96 % 0.03 in
08:22 73.1 °F 71.9 °F 29.97 in Calm   2.3 mph 96 % 0.03 in
08:27 73.1 °F 71.9 °F 29.97 in Calm     96 % 0.04 in
08:32 73.1 °F 71.9 °F 29.97 in Calm     96 % 0.04 in
08:37 73.0 °F 71.8 °F 29.97 in Calm   2.3 mph 96 % 0.04 in
08:43 72.9 °F 71.7 °F 29.97 in Calm   1.2 mph 96 % 0.04 in
08:48 72.9 °F 71.7 °F 29.98 in NNE 0.2 mph 1.2 mph 96 % 0.04 in
08:53 72.8 °F 71.3 °F 29.97 in Calm     95 % 0.04 in
08:58 72.7 °F 71.2 °F 29.98 in Calm     95 % 0.03 in
09:03 72.6 °F 71.1 °F 29.99 in NNE 0.4 mph 1.2 mph 95 % 0.02 in
09:08 72.5 °F 71.3 °F 29.99 in Calm     96 % 0.02 in
09:13 72.5 °F 71.3 °F 29.99 in Calm     96 % 0.02 in
09:18 72.5 °F 71.3 °F 29.99 in Calm     96 % 0.03 in
09:23 72.4 °F 71.2 °F 30.00 in SE 1.5 mph 3.5 mph 96 % 0.04 in
09:28 72.4 °F 71.2 °F 30.00 in Calm     96 % 0.04 in
09:34 72.3 °F 71.1 °F 30.01 in Calm     96 % 0.05 in
09:39 72.3 °F 71.1 °F 30.00 in SE 0.1 mph 1.0 mph 96 % 0.05 in
09:44 72.3 °F 71.1 °F 29.99 in Calm   1.2 mph 96 % 0.06 in
09:49 72.3 °F 71.1 °F 30.00 in Calm     96 % 0.08 in
09:54 72.3 °F 71.1 °F 30.00 in Calm     96 % 0.07 in
09:59 72.4 °F 71.2 °F 30.01 in Calm     96 % 0.08 in
10:04 72.4 °F 71.2 °F 30.01 in Calm     96 % 0.08 in
10:09 72.4 °F 71.2 °F 30.01 in Calm     96 % 0.08 in
10:14 72.4 °F 71.2 °F 30.00 in Calm     96 % 0.10 in
10:19 72.4 °F 71.2 °F 30.00 in Calm     96 % 0.11 in
10:25 72.4 °F 71.2 °F 30.00 in Calm     96 % 0.11 in
10:30 72.4 °F 71.2 °F 30.00 in Calm     96 % 0.11 in
10:35 72.4 °F 71.2 °F 30.01 in Calm     96 % 0.11 in
10:40 72.4 °F 71.2 °F 30.00 in Calm     96 % 0.13 in
10:45 72.4 °F 71.2 °F 30.01 in Calm     96 % 0.13 in
10:50 72.4 °F 71.2 °F 30.01 in SE 0.1 mph 1.0 mph 96 % 0.14 in
10:55 72.4 °F 71.5 °F 30.02 in SE 0.3 mph 1.2 mph 97 % 0.15 in
11:00 72.4 °F 71.5 °F 30.02 in SE 0.1 mph 1.2 mph 97 % 0.16 in
11:05 72.4 °F 71.5 °F 30.02 in Calm     97 % 0.17 in
11:10 72.3 °F 71.4 °F 30.02 in SE 0.2 mph 2.0 mph 97 % 0.19 in
11:15 72.2 °F 71.0 °F 30.02 in SE 2.0 mph 3.5 mph 96 % 0.19 in
11:20 72.1 °F 70.9 °F 30.02 in SE 2.2 mph 5.8 mph 96 % 0.19 in
11:25 72.0 °F 70.8 °F 30.02 in SE 1.3 mph 3.5 mph 96 % 0.21 in
11:31 72.0 °F 70.8 °F 30.02 in SE 1.0 mph 2.0 mph 96 % 0.00 in
11:36 71.9 °F 71.0 °F 30.02 in SE 1.1 mph 2.3 mph 97 % 0.23 in
11:41 72.0 °F 71.1 °F 30.01 in SE 1.0 mph 4.0 mph 97 % 0.01 in
11:46 72.0 °F 71.1 °F 30.01 in SE 3.0 mph 6.0 mph 97 % 0.00 in
11:51 72.1 °F 71.2 °F 30.01 in SE 1.0 mph 5.0 mph 97 % 0.00 in
11:56 72.1 °F 71.2 °F 30.01 in SE 2.0 mph 5.0 mph 97 % 0.00 in
12:01 72.2 °F 71.3 °F 30.01 in SE 1.2 mph 6.9 mph 97 % 0.25 in
12:06 72.2 °F 71.3 °F 30.00 in ESE 2.6 mph 3.5 mph 97 % 0.24 in
12:11 72.3 °F 71.4 °F 30.01 in SE 2.6 mph 4.6 mph 97 % 0.24 in
12:16 72.3 °F 71.4 °F 30.00 in SE 4.1 mph 5.8 mph 97 % 0.23 in
12:21 72.3 °F 71.4 °F 30.00 in SE 2.5 mph 3.5 mph 97 % 0.21 in
12:26 72.2 °F 71.3 °F 30.00 in SE 2.2 mph 3.5 mph 97 % 0.20 in
12:31 72.2 °F 71.3 °F 30.00 in SE 2.0 mph 3.5 mph 97 % 0.19 in
12:36 72.2 °F 71.3 °F 30.00 in ESE 2.1 mph 3.5 mph 97 % 0.17 in
12:41 72.2 °F 71.3 °F 29.99 in ESE 4.7 mph 6.9 mph 97 % 0.15 in
12:46 72.1 °F 71.2 °F 29.98 in SE 4.0 mph 5.8 mph 97 % 0.14 in
12:52 72.0 °F 71.1 °F 29.98 in SE 4.8 mph 11.5 mph 97 % 0.12 in
12:57 71.7 °F 70.8 °F 29.98 in SSE 3.4 mph 9.0 mph 97 % 0.11 in
13:02 71.5 °F 70.6 °F 29.99 in SE 4.5 mph 13.8 mph 97 % 0.09 in
13:07 71.3 °F 70.4 °F 29.99 in SE 7.0 mph 16.0 mph 97 % 0.08 in
13:12 71.2 °F 70.3 °F 29.99 in South 6.7 mph 10.4 mph 97 % 0.07 in
13:17 71.1 °F 70.2 °F 29.99 in ESE 6.7 mph 15.0 mph 97 % 0.06 in
13:22 70.9 °F 70.0 °F 29.99 in SE 5.5 mph 10.4 mph 97 % 0.05 in
13:27 70.9 °F 70.0 °F 29.99 in SSE 3.7 mph 9.2 mph 97 % 0.04 in
13:32 70.8 °F 69.9 °F 29.99 in SSE 5.8 mph 10.4 mph 97 % 0.03 in
13:37 70.7 °F 69.8 °F 29.99 in SSE 4.8 mph 8.1 mph 97 % 0.03 in
13:43 70.7 °F 69.8 °F 30.01 in SSE 3.0 mph 5.8 mph 97 % 0.01 in
13:48 70.5 °F 69.6 °F 30.01 in SSE 1.8 mph 8.1 mph 97 % 0.01 in
13:53 70.4 °F 69.5 °F 30.01 in SSE 4.0 mph 7.0 mph 97 % 0.01 in
13:58 70.4 °F 69.5 °F 30.00 in SE 6.4 mph 12.7 mph 97 % 0.01 in
14:03 70.3 °F 69.4 °F 30.00 in SSE 5.4 mph 11.5 mph 97 % 0.01 in
14:08 70.3 °F 69.4 °F 30.00 in SSE 6.4 mph 15.0 mph 97 % 0.01 in
14:13 70.3 °F 69.4 °F 29.99 in SE 5.9 mph 8.0 mph 97 % 0.01 in
14:18 70.3 °F 69.1 °F 29.99 in SSE 2.6 mph 6.9 mph 96 % 0.01 in
14:29 70.4 °F 69.2 °F 30.00 in SE 7.0 mph 10.4 mph 96 % 0.01 in
14:34 70.6 °F 69.7 °F 30.00 in South 1.5 mph 6.9 mph 97 % 0.01 in
14:39 70.7 °F 69.5 °F 30.01 in South 2.1 mph 4.6 mph 96 % 0.00 in
14:44 70.8 °F 69.6 °F 30.01 in SSE 1.4 mph 5.0 mph 96 % 0.00 in
14:49 71.0 °F 70.1 °F 30.01 in WSW 0.9 mph 3.5 mph 97 % 0.00 in
14:54 71.2 °F 70.3 °F 30.02 in West 2.0 mph 3.5 mph 97 % 0.00 in
14:59 71.4 °F 70.5 °F 30.02 in West 2.3 mph 3.5 mph 97 % 0.00 in
15:04 71.5 °F 70.6 °F 30.03 in Calm     97 % 0.00 in
15:09 71.5 °F 70.6 °F 30.02 in WNW 2.0 mph 3.5 mph 97 % 0.00 in
15:14 71.5 °F 70.3 °F 30.02 in WNW 0.4 mph 2.3 mph 96 % 0.00 in
15:20 71.6 °F 70.4 °F 30.02 in Calm   1.2 mph 96 % 0.00 in
15:25 71.7 °F 70.8 °F 30.02 in Calm     97 % 0.00 in
15:30 71.7 °F 70.8 °F 30.01 in Calm     97 % 0.00 in
15:35 71.8 °F 70.6 °F 30.02 in Calm     96 % 0.00 in
15:40 71.8 °F 70.6 °F 30.02 in Calm     96 % 0.00 in
15:45 71.8 °F 70.6 °F 30.01 in Calm     96 % 0.00 in
15:50 71.8 °F 70.6 °F 30.01 in Calm     96 % 0.00 in
15:56 71.8 °F 70.6 °F 30.01 in Calm     96 % 0.00 in
16:00 71.8 °F 70.3 °F 30.01 in Calm     95 % 0.00 in
16:06 71.7 °F 70.2 °F 30.01 in Calm     95 % 0.00 in
16:11 71.8 °F 70.3 °F 30.01 in Calm     95 % 0.00 in
16:16 71.7 °F 70.2 °F 30.01 in Calm     95 % 0.00 in
16:21 71.7 °F 70.2 °F 30.01 in Calm     95 % 0.00 in
16:26 71.7 °F 70.2 °F 30.01 in Calm     95 % 0.00 in
16:34 71.6 °F 70.1 °F 30.00 in Calm     95 % 0.00 in
16:39 71.6 °F 70.1 °F 30.00 in Calm     95 % 0.00 in
16:44 71.6 °F 70.1 °F 30.00 in Calm     95 % 0.00 in
16:49 71.6 °F 70.1 °F 30.00 in Calm     95 % 0.00 in
16:54 71.6 °F 70.1 °F 30.00 in Calm     95 % 0.01 in
16:57 71.6 °F 70.1 °F 30.00 in Calm     95 % 0.01 in
17:02 71.6 °F 70.1 °F 30.00 in Calm     95 % 0.01 in
17:07 71.5 °F 70.0 °F 30.00 in Calm     95 % 0.01 in
17:12 71.5 °F 70.0 °F 30.00 in Calm     95 % 0.01 in
17:18 71.5 °F 70.0 °F 30.00 in Calm     95 % 0.01 in
17:23 71.5 °F 70.0 °F 30.00 in Calm     95 % 0.01 in
17:28 71.5 °F 70.0 °F 30.00 in Calm     95 % 0.01 in
17:33 71.4 °F 69.9 °F 29.99 in WNW 0.2 mph 1.2 mph 95 % 0.01 in
17:38 71.3 °F 69.8 °F 30.00 in Calm     95 % 0.01 in
17:43 71.3 °F 69.8 °F 30.00 in WNW 0.1 mph 1.2 mph 95 % 0.01 in
17:48 71.2 °F 69.7 °F 30.00 in SSE 0.5 mph 2.3 mph 95 % 0.01 in
17:53 71.2 °F 69.7 °F 30.00 in SSE 1.5 mph 3.0 mph 95 % 0.00 in
17:58 71.1 °F 69.6 °F 30.00 in Calm     95 % 0.00 in
18:03 71.1 °F 69.6 °F 30.00 in Calm     95 % 0.00 in
18:09 71.0 °F 69.5 °F 30.00 in Calm     95 % 0.00 in
18:14 71.0 °F 69.5 °F 30.01 in Calm     95 % 0.00 in
18:19 70.9 °F 69.4 °F 30.01 in Calm     95 % 0.00 in
18:24 70.8 °F 69.3 °F 30.01 in Calm     95 % 0.00 in
18:29 70.8 °F 69.3 °F 30.01 in Calm     95 % 0.00 in
18:34 70.7 °F 69.2 °F 30.02 in Calm     95 % 0.00 in
18:39 70.6 °F 69.1 °F 30.02 in Calm     95 % 0.00 in
18:44 70.6 °F 69.1 °F 30.02 in Calm     95 % 0.00 in
18:49 70.5 °F 69.0 °F 30.02 in Calm     95 % 0.00 in
18:54 70.4 °F 68.9 °F 30.03 in Calm     95 % 0.00 in
19:00 70.4 °F 68.9 °F 30.03 in Calm     95 % 0.00 in
19:10 70.4 °F 68.9 °F 30.04 in Calm     95 % 0.00 in
19:15 70.3 °F 68.8 °F 30.04 in Calm     95 % 0.00 in
19:20 70.3 °F 69.1 °F 30.03 in Calm     96 % 0.00 in
19:25 70.3 °F 69.1 °F 30.02 in Calm   1.2 mph 96 % 0.00 in
19:30 70.2 °F 69.0 °F 30.03 in Calm     96 % 0.00 in
19:35 70.2 °F 69.0 °F 30.03 in SSE 0.1 mph 1.0 mph 96 % 0.00 in
19:40 70.2 °F 69.0 °F 30.02 in Calm     96 % 0.00 in
19:45 70.1 °F 68.9 °F 30.03 in Calm     96 % 0.00 in
19:50 70.1 °F 68.9 °F 30.02 in Calm     96 % 0.00 in
19:55 70.1 °F 68.9 °F 30.03 in Calm     96 % 0.00 in
20:00 70.1 °F 68.9 °F 30.03 in Calm     96 % 0.00 in
20:05 70.0 °F 68.8 °F 30.04 in Calm     96 % 0.00 in
20:15 70.0 °F 68.8 °F 30.03 in Calm     96 % 0.00 in
20:26 69.9 °F 68.7 °F 30.03 in Calm     96 % 0.00 in
20:30 69.9 °F 68.7 °F 30.04 in Calm     96 % 0.00 in
20:36 69.8 °F 68.7 °F 30.04 in Calm     96 % 0.00 in
20:41 69.8 °F 68.6 °F 30.04 in Calm     96 % 0.00 in
20:46 69.7 °F 68.5 °F 30.04 in Calm     96 % 0.00 in
20:51 69.7 °F 68.5 °F 30.04 in Calm     96 % 0.00 in
20:55 69.7 °F 68.5 °F 30.04 in Calm     96 % 0.00 in
21:01 69.7 °F 68.5 °F 30.04 in Calm     96 % 0.00 in
21:05 69.6 °F 68.5 °F 30.04 in Calm     96 % 0.00 in
21:10 69.6 °F 68.4 °F 30.04 in Calm     96 % 0.00 in
21:16 69.6 °F 68.4 °F 30.04 in Calm     96 % 0.00 in
21:21 69.5 °F 68.4 °F 30.04 in Calm     96 % 0.00 in
21:25 69.5 °F 68.3 °F 30.04 in Calm     96 % 0.00 in
21:31 69.5 °F 68.3 °F 30.04 in Calm     96 % 0.00 in
21:36 69.5 °F 68.3 °F 30.04 in Calm     96 % 0.00 in
21:46 69.5 °F 68.3 °F 30.04 in Calm     96 % 0.00 in
21:51 69.5 °F 68.3 °F 30.04 in Calm     96 % 0.00 in
21:56 69.5 °F 68.3 °F 30.04 in Calm     96 % 0.00 in
22:01 69.4 °F 68.2 °F 30.04 in Calm     96 % 0.00 in
22:05 69.4 °F 68.2 °F 30.04 in Calm     96 % 0.00 in
22:11 69.4 °F 68.2 °F 30.04 in Calm     96 % 0.00 in
22:15 69.4 °F 68.2 °F 30.04 in Calm     96 % 0.00 in
22:20 69.4 °F 68.2 °F 30.04 in Calm     96 % 0.00 in
22:25 69.4 °F 68.2 °F 30.04 in Calm     96 % 0.00 in
22:30 69.4 °F 68.2 °F 30.04 in Calm     96 % 0.00 in
22:35 69.5 °F 68.6 °F 30.04 in Calm     97 % 0.00 in
22:40 69.5 °F 68.6 °F 30.04 in Calm     97 % 0.00 in
22:46 69.5 °F 68.6 °F 30.05 in Calm     97 % 0.00 in
22:51 69.4 °F 68.5 °F 30.05 in Calm     97 % 0.00 in
23:01 69.4 °F 68.5 °F 30.05 in Calm     97 % 0.00 in
23:06 69.4 °F 68.5 °F 30.04 in Calm     97 % 0.00 in
23:11 69.4 °F 68.5 °F 30.04 in Calm     97 % 0.00 in
23:16 69.4 °F 68.5 °F 30.05 in Calm     97 % 0.00 in
23:21 69.4 °F 68.5 °F 30.04 in Calm     97 % 0.00 in
23:26 69.3 °F 68.4 °F 30.05 in Calm     97 % 0.00 in
23:31 69.3 °F 68.4 °F 30.05 in Calm     97 % 0.00 in
23:36 69.3 °F 68.4 °F 30.05 in Calm     97 % 0.00 in
23:41 69.3 °F 68.4 °F 30.05 in Calm     97 % 0.00 in
23:47 69.3 °F 68.4 °F 30.05 in Calm     97 % 0.00 in
23:52 69.3 °F 68.4 °F 30.05 in Calm     97 % 0.00 in
23:57 69.3 °F 68.4 °F 30.05 in Calm     97 % 0.00 in
Crab Meadow Weather
Compliments of Weather Underground - 2.75 mb

Script developed by  Jim McMurry - jmcmurry@mwt.net Adapted for the template by  Wim van der Kuil - Leuven-Template.eu

Astronomy: One day on Uranus is 18 hours